Overview Statistics Trail Chart Weather Telemetry Raw packets
 

This is the latest recevied weather packets stored in our database for station/object DB0OHL. If no packets are shown the sender has not sent any weather packets the latest 10 day(s).

<< 35 36 37 38 39 40 41 >>
Time Temp. Humidity Pressure Rain* Wind** Luminosity Snow
1777281334 16.11° C 59% 1023.5 hPa 0 mm - - -
1777280761 15° C 61% 1023.5 hPa 0 mm - - -
1777280158 15.56° C 62% 1023.7 hPa 0 mm - - -
1777279556 15° C 64% 1023.9 hPa 0 mm - - -
1777278953 14.44° C 66% 1023.8 hPa 0 mm - - -
1777278351 14.44° C 66% 1024 hPa 0 mm - - -
1777277748 14.44° C 67% 1024.1 hPa 0 mm - - -
1777277146 13.89° C 69% 1024.2 hPa 0 mm - - -
1777276543 13.33° C 72% 1024.3 hPa 0 mm - - -
1777275941 12.78° C 71% 1024.4 hPa 0 mm - - -
1777275338 12.22° C 74% 1024.4 hPa 0 mm - - -
1777274736 11.11° C 76% 1024.5 hPa 0 mm - - -
1777274133 11.11° C 77% 1024.6 hPa 0 mm - - -
1777273560 10° C 80% 1024.8 hPa 0 mm - - -
1777272958 10.56° C 79% 1024.8 hPa 0 mm - - -
1777272355 10° C 79% 1025 hPa 0 mm - - -
1777271753 9.44° C 80% 1025 hPa 0 mm - - -
1777271150 9.44° C 79% 1025.1 hPa 0 mm - - -
1777270548 9.44° C 80% 1025.2 hPa 0 mm - - -
1777269945 8.33° C 81% 1025 hPa 0 mm - - -
1777269343 7.78° C 84% 1025.1 hPa 0 mm - - -
1777268740 7.22° C 87% 1025 hPa 0 mm - - -
1777268138 7.22° C 88% 1024.9 hPa 0 mm - - -
1777267535 6.67° C 88% 1024.8 hPa 0 mm - - -
1777266933 6.11° C 91% 1024.7 hPa 0 mm - - -

* Rain latest hour (hover to see other rain measurements)
** Current wind speed in m/s (hover to see current wind gust speed)